Tracking 35331 objects as of 16-Sep-2026
HD Live streaming from Space Station
objects crossing your sky now

STARLINK-30571

Track STARLINK-30571 now!
10-day predictions
STARLINK-30571 is classified as:


NORAD ID: 58066
Int'l Code: 2023-158R
Launch date: October 13, 2023
Source: United States (US)
Launch site: AIR FORCE EASTERN TEST RANGE (AFETR)
Your satellite tracking list
Your tracking list is empty




NASA's NSSDC Master Catalog

Two Line Element Set (TLE):
1 58066U 23158R   26258.87309329  .00000361  00000-0  22652-4 0  9999
2 58066  43.0031  33.1943 0001374 272.9192  87.1503 15.27581045162650
Source of the keplerian elements: AFSPC